Barrow, AK

6:40 PM AKDT on June 19, 2018 (GMT -0800)
Wiley Post-Will Rogers Memorial

Weather History for PABR - November, 2017

Change the Weather History Date:

Friday, November 10, 2017

  Actual Average Record
Temperature  
Mean Temperature 29 °F 3 °F  
Max Temperature 31 °F 8 °F 37 °F (1950)
Min Temperature 26 °F -3 °F -28 °F (1974)
Degree Days  
Heating Degree Days 36 62  
Month to date heating degree days 278 600  
Since 1 July heating degree days 3778 4623  
Cooling Degree Days 0 0  
Month to date cooling degree days 0 0  
Year to date cooling degree days 0 0  
Moisture  
Dew Point 26 °F    
Average Humidity 88    
Maximum Humidity 96    
Minimum Humidity 67    
Precipitation  
Precipitation 0.13 in 0.00 in 0.41 in (1937)
Month to date precipitation 0.42 0.08  
Year to date precipitation 7.46 4.26  
Snow  
Snow 1.30 in 0.20 in 2.00 in (1928)
Month to date snowfall 4.0 2.3  
Since 1 July snowfall 11.9 16.9  
Since 1 September snowfall 11.1 15.8  
Snow Depth 1.00 in    
Sea Level Pressure  
Sea Level Pressure 29.71 in    
Wind  
Wind Speed 27 mph (WSW)    
Max Wind Speed 32 mph    
Max Gust Speed 41 mph    
Visibility 2 miles    
Events Fog , Snow    
T = Trace of Precipitation, MM = Missing Value Source: NWS Daily Summary

Daily Weather History Graph

Daily Weather History Graph

Search for Another Location

Airport or City:

Astronomy

Nov. 10, 2017 Rise Set
Actual Time 11:15 AM AKST 3:05 PM AKST
Civil Twilight 9:33 AM AKST 4:47 PM AKST
Nautical Twilight 8:07 AM AKST 6:13 PM AKST
Astronomical Twilight 6:50 AM AKST 7:29 PM AKST
Moon 10:52 PM AKST (11/10) 4:57 PM AKST (11/10)
Length of Visible Light 7h 14m
Length of Day
3h 49m
Waning Gibbous, 50% of the Moon is Illuminated
Nov 10
Waning Gibbous
Nov 18
New
Nov 26
First Quarter
Dec 3
Full
Dec 9
Last Quarter

Hourly Weather History & Observations

Time (AKST) Temp. Windchill Dew Point Humidity Pressure Visibility Wind Dir Wind Speed Gust Speed Precip Events Conditions
12:01 AM 28.0 °F 12.8 °F 24.1 °F 85% 29.56 in 1.0 mi WSW 27.6 mph 39.1 mph 0.00 in Snow Light Snow
12:06 AM 28.0 °F 13.9 °F 25.0 °F 88% 29.56 in 0.5 mi West 23.0 mph 39.1 mph 0.00 in Fog , Snow Light Snow
12:17 AM 28.0 °F 12.5 °F 25.0 °F 88% 29.56 in 1.0 mi WSW 28.8 mph 35.7 mph 0.01 in Snow Light Snow
12:33 AM 28.0 °F 12.8 °F 23.0 °F 81% 29.57 in 1.2 mi WSW 27.6 mph 33.4 mph 0.01 in Snow Light Snow
12:53 AM 28.0 °F 13.0 °F 24.1 °F 85% 29.58 in 1.8 mi SW 26.5 mph - 0.01 in Snow Light Snow
1:04 AM 28.0 °F 13.3 °F 24.1 °F 85% 29.58 in 2.0 mi SW 25.3 mph - 0.00 in Snow Light Snow
1:09 AM 28.0 °F 12.5 °F 24.1 °F 85% 29.57 in 1.8 mi WSW 28.8 mph 35.7 mph 0.00 in Snow Light Snow
1:17 AM 28.0 °F 13.3 °F 24.1 °F 85% 29.57 in 1.5 mi WSW 25.3 mph 35.7 mph 0.00 in Snow Light Snow
1:53 AM 28.0 °F 12.8 °F 24.1 °F 85% 29.58 in 1.0 mi SW 27.6 mph 36.8 mph 0.00 in Snow Light Snow
2:04 AM 27.0 °F 10.5 °F 25.0 °F 92% 29.57 in 0.8 mi SW 31.1 mph 35.7 mph 0.00 in Snow Light Snow
2:14 AM 28.0 °F 12.3 °F 24.1 °F 85% 29.58 in 1.0 mi SW 29.9 mph 39.1 mph 0.00 in Snow Light Snow
2:27 AM 27.0 °F 11.0 °F 24.1 °F 89% 29.58 in 1.2 mi SW 28.8 mph 35.7 mph 0.00 in Snow Light Snow
2:46 AM 27.0 °F 11.3 °F 24.1 °F 89% 29.58 in 0.8 mi SW 27.6 mph 34.5 mph 0.00 in Snow Light Snow
2:53 AM 27.0 °F 11.6 °F 24.1 °F 89% 29.59 in 1.0 mi SW 26.5 mph 36.8 mph 0.00 in Snow Light Snow
3:22 AM 27.0 °F 10.8 °F 24.1 °F 89% 29.59 in 1.0 mi SW 29.9 mph 36.8 mph 0.00 in Snow Light Snow
3:51 AM 26.6 °F 10.6 °F 24.8 °F 93% 29.59 in 0.8 mi SW 28.8 mph 34.5 mph 0.00 in Snow Light Snow
3:53 AM 26.1 °F 9.6 °F 24.1 °F 92% 29.60 in 0.8 mi SW 29.9 mph - 0.00 in Snow Light Snow
3:56 AM 26.1 °F 9.6 °F 24.1 °F 92% 29.59 in 1.0 mi SW 29.9 mph 36.8 mph 0.00 in Snow Light Snow
4:03 AM 27.0 °F 11.0 °F 24.1 °F 89% 29.59 in 2.0 mi SW 28.8 mph 36.8 mph 0.00 in Snow Light Snow
4:07 AM 28.0 °F 11.8 °F 24.1 °F 85% 29.58 in 3.0 mi SW 32.2 mph 36.8 mph 0.00 in Snow Light Snow
4:17 AM 28.0 °F 12.5 °F 25.0 °F 88% 29.58 in 1.8 mi SW 28.8 mph 35.7 mph 0.00 in Snow Light Snow
4:27 AM 28.0 °F 12.5 °F 25.0 °F 88% 29.58 in 1.0 mi SW 28.8 mph 38.0 mph 0.00 in Snow Light Snow
4:49 AM 26.6 °F 10.3 °F 24.8 °F 93% 29.59 in 1.0 mi SW 29.9 mph 39.1 mph 0.00 in Snow Light Snow
4:53 AM 27.0 °F 11.0 °F 25.0 °F 92% 29.59 in 1.0 mi SW 28.8 mph 39.1 mph 0.00 in Snow Light Snow
5:17 AM 28.0 °F 12.0 °F 25.0 °F 88% 29.59 in 3.0 mi SW 31.1 mph 38.0 mph 0.00 in Snow Light Snow
5:31 AM 28.0 °F 12.8 °F 25.0 °F 88% 29.59 in 1.5 mi SW 27.6 mph 36.8 mph 0.00 in Snow Light Snow
5:35 AM 28.0 °F 12.0 °F 26.1 °F 92% 29.59 in 0.8 mi SW 31.1 mph 36.8 mph 0.00 in Snow Light Snow
5:43 AM 28.0 °F 12.3 °F 26.1 °F 92% 29.59 in 0.2 mi SW 29.9 mph 38.0 mph 0.00 in Fog , Snow Light Snow
5:47 AM 28.4 °F 13.3 °F 26.6 °F 93% 29.58 in 0.2 mi SW 27.6 mph 39.1 mph 0.00 in Fog , Snow Light Snow
5:53 AM 28.0 °F 12.5 °F 26.1 °F 92% 29.59 in 0.2 mi SW 28.8 mph 41.4 mph 0.00 in Fog , Snow Light Snow
6:00 AM 28.0 °F 11.8 °F 26.1 °F 92% 29.59 in 0.5 mi SW 32.2 mph 41.4 mph 0.00 in Fog , Snow Light Snow
6:53 AM 28.9 °F 14.0 °F 28.0 °F 96% 29.60 in 0.5 mi SW 27.6 mph - 0.01 in Fog , Snow Light Snow
6:57 AM 28.0 °F 12.8 °F 27.0 °F 96% 29.60 in 0.8 mi SW 27.6 mph - 0.00 in Snow Light Snow
7:06 AM 28.0 °F 13.6 °F 27.0 °F 96% 29.60 in 0.8 mi SW 24.2 mph 34.5 mph 0.00 in Snow Light Snow
7:13 AM 28.9 °F 14.8 °F 27.0 °F 92% 29.60 in 2.0 mi WSW 24.2 mph - 0.00 in Snow Light Snow
7:16 AM 30.2 °F 16.2 °F 24.8 °F 80% 29.60 in 4.0 mi West 25.3 mph - N/A Snow Light Snow
7:53 AM 30.0 °F 14.9 °F 26.1 °F 85% 29.61 in 3.0 mi WSW 29.9 mph - 0.00 in Snow Light Snow
8:53 AM 30.0 °F 15.4 °F 25.0 °F 82% 29.62 in 3.0 mi West 27.6 mph 35.7 mph 0.00 in Snow Light Snow
9:53 AM 30.0 °F 16.3 °F 25.0 °F 82% 29.65 in 4.0 mi WSW 24.2 mph 31.1 mph 0.00 in Snow Light Snow
10:53 AM 30.9 °F 18.7 °F 25.0 °F 79% 29.67 in 9.0 mi WSW 19.6 mph - 0.00 in Snow Light Snow
10:59 AM 30.0 °F 15.4 °F 26.1 °F 85% 29.66 in 0.5 mi West 27.6 mph 35.7 mph 0.00 in Snow Light Snow
11:12 AM 28.9 °F 14.8 °F 28.0 °F 96% 29.67 in 1.0 mi WSW 24.2 mph 31.1 mph 0.02 in Snow Light Snow
11:20 AM 28.9 °F 15.4 °F 28.0 °F 96% 29.67 in 1.8 mi WSW 21.9 mph - 0.02 in Snow Light Snow
11:24 AM 28.9 °F 15.8 °F 27.0 °F 92% 29.68 in 2.5 mi WSW 20.7 mph - 0.02 in Snow Light Snow
11:38 AM 30.9 °F 18.4 °F 27.0 °F 85% 29.68 in 7.0 mi West 20.7 mph - 0.02 in Snow Light Snow
11:42 AM 30.0 °F 15.2 °F 27.0 °F 88% 29.68 in 0.8 mi West 28.8 mph 36.8 mph 0.02 in Snow Light Snow
11:51 AM 30.2 °F 17.1 °F 28.4 °F 93% 29.69 in 1.0 mi West 21.9 mph - 0.02 in Snow Light Snow
11:53 AM 30.0 °F 16.9 °F 28.0 °F 92% 29.69 in 1.0 mi West 21.9 mph - 0.03 in Snow Light Snow
11:57 AM 30.0 °F 16.6 °F 27.0 °F 88% 29.68 in 3.0 mi West 23.0 mph - 0.00 in Snow Light Snow
12:29 PM 30.0 °F 15.2 °F 28.0 °F 92% 29.69 in 0.5 mi West 28.8 mph 35.7 mph 0.00 in Snow Light Snow
12:33 PM 30.0 °F 16.6 °F 28.0 °F 92% 29.70 in 0.2 mi West 23.0 mph 35.7 mph 0.00 in Snow Light Snow
12:53 PM 30.0 °F 14.9 °F 28.9 °F 96% 29.71 in 0.2 mi WNW 29.9 mph 34.5 mph 0.00 in Snow Light Snow
1:10 PM 30.0 °F 16.9 °F 28.9 °F 96% 29.72 in 0.2 mi West 21.9 mph - 0.01 in Snow Light Snow
1:36 PM 30.0 °F 16.0 °F 28.9 °F 96% 29.73 in 1.0 mi West 25.3 mph - 0.05 in Snow Light Snow
1:43 PM 30.9 °F 17.2 °F 28.9 °F 92% 29.72 in 1.0 mi West 25.3 mph - 0.05 in Snow Light Snow
1:53 PM 30.9 °F 16.4 °F 28.0 °F 89% 29.73 in 1.0 mi West 28.8 mph - 0.05 in Snow Light Snow
1:56 PM 30.9 °F 15.9 °F 28.9 °F 92% 29.72 in 0.5 mi West 31.1 mph 38.0 mph 0.00 in Snow Light Snow
2:03 PM 30.0 °F 17.2 °F 28.9 °F 96% 29.74 in 0.2 mi West 20.7 mph 38.0 mph 0.01 in Snow Light Snow
2:11 PM 30.0 °F 16.9 °F 28.0 °F 92% 29.74 in 1.0 mi West 21.9 mph - 0.02 in Snow Light Snow
2:14 PM 30.0 °F 16.9 °F 28.0 °F 92% 29.74 in 2.5 mi West 21.9 mph - 0.02 in Snow Light Snow
2:22 PM 30.0 °F 15.4 °F 27.0 °F 88% 29.75 in 1.5 mi West 27.6 mph 33.4 mph 0.02 in Snow Light Snow
2:29 PM 30.0 °F 16.3 °F 27.0 °F 88% 29.75 in 1.8 mi West 24.2 mph - 0.02 in Snow Light Snow
2:36 PM 30.9 °F 17.2 °F 27.0 °F 85% 29.75 in 2.5 mi West 25.3 mph - 0.02 in Snow Light Snow
2:43 PM 30.9 °F 17.2 °F 27.0 °F 85% 29.75 in 2.5 mi West 25.3 mph - 0.02 in Snow Light Snow
3:49 PM 30.2 °F 16.5 °F 26.6 °F 86% 29.78 in 3.0 mi West 24.2 mph - 0.00 in Snow Light Snow
3:53 PM 30.9 °F 17.2 °F 27.0 °F 85% 29.79 in 3.0 mi West 25.3 mph - 0.00 in Snow Light Snow
4:09 PM 30.9 °F 16.7 °F 28.0 °F 89% 29.80 in 0.8 mi WNW 27.6 mph 36.8 mph 0.00 in Snow Light Snow
4:20 PM 30.0 °F 16.0 °F 27.0 °F 88% 29.80 in 2.0 mi West 25.3 mph - 0.00 in Snow Light Snow
4:28 PM 30.0 °F 16.0 °F 26.1 °F 85% 29.80 in 2.0 mi West 25.3 mph - 0.00 in Snow Light Snow
4:36 PM 30.0 °F 16.0 °F 26.1 °F 85% 29.81 in 1.8 mi West 25.3 mph - 0.00 in Snow Light Snow
4:53 PM 30.0 °F 16.6 °F 26.1 °F 85% 29.83 in 4.0 mi WNW 23.0 mph 34.5 mph 0.00 in Snow Light Snow
5:53 PM 30.9 °F 17.5 °F 25.0 °F 79% 29.86 in 6.0 mi West 24.2 mph - 0.00 in Snow Light Snow
6:21 PM 30.0 °F 14.5 °F 27.0 °F 88% 29.87 in 1.5 mi NW 32.2 mph 36.8 mph 0.00 in Snow Light Snow
6:26 PM 28.9 °F 14.5 °F 27.0 °F 92% 29.88 in 0.8 mi WNW 25.3 mph 36.8 mph 0.00 in Snow Light Snow
6:35 PM 28.9 °F 15.8 °F 27.0 °F 92% 29.87 in 0.5 mi WNW 20.7 mph - 0.00 in Snow Light Snow
6:40 PM 28.9 °F 16.1 °F 27.0 °F 92% 29.87 in 1.0 mi West 19.6 mph - 0.00 in Snow Light Snow
6:43 PM 28.9 °F 16.1 °F 27.0 °F 92% 29.88 in 4.0 mi West 19.6 mph - 0.00 in Snow Light Snow
6:50 PM 30.2 °F 16.8 °F 26.6 °F 86% 29.88 in 5.0 mi West 23.0 mph - 0.00 in Snow Light Snow
6:53 PM 30.9 °F 15.7 °F 27.0 °F 85% 29.88 in 1.8 mi West 32.2 mph 39.1 mph 0.00 in Snow Light Snow
6:57 PM 28.9 °F 14.5 °F 27.0 °F 92% 29.88 in 0.8 mi WNW 25.3 mph 39.1 mph 0.00 in Snow Light Snow
7:03 PM 28.9 °F 16.1 °F 26.1 °F 89% 29.88 in 1.0 mi West 19.6 mph - 0.00 in Snow Light Snow
7:06 PM 28.9 °F 15.1 °F 25.0 °F 85% 29.88 in 2.5 mi West 23.0 mph - 0.00 in Snow Light Snow
7:18 PM 28.9 °F 15.1 °F 26.1 °F 89% 29.89 in 1.0 mi West 23.0 mph 38.0 mph 0.00 in Snow Light Snow
7:25 PM 30.0 °F 16.0 °F 25.0 °F 82% 29.89 in 3.0 mi West 25.3 mph - 0.00 in Snow Light Snow
7:33 PM 30.0 °F 16.9 °F 25.0 °F 82% 29.89 in 2.0 mi West 21.9 mph - 0.01 in Snow Light Snow
7:51 PM 30.2 °F 15.4 °F 24.8 °F 80% 29.90 in 5.0 mi WNW 28.8 mph - 0.01 in Snow Light Snow
7:53 PM 30.0 °F 15.7 °F 24.1 °F 79% 29.90 in 5.0 mi West 26.5 mph - 0.01 in Snow Light Snow
8:53 PM 30.0 °F 15.4 °F 24.1 °F 79% 29.93 in 5.0 mi West 27.6 mph - 0.00 in Snow Light Snow
9:53 PM 30.0 °F 16.6 °F 23.0 °F 75% 29.96 in 5.0 mi West 23.0 mph 35.7 mph 0.00 in Snow Light Snow
10:53 PM 30.9 °F 17.2 °F 21.0 °F 67% 29.99 in 6.0 mi WNW 25.3 mph - 0.00 in Snow Light Snow
11:53 PM 30.9 °F 17.2 °F 21.9 °F 69% 30.01 in 9.0 mi WNW 25.3 mph - 0.00 in Snow Light Snow